Regional Weather Roundup
Issued by NWS

Home | Current Version | Previous Version | Text Only | Print | Product List | Glossary On
Versions: 1 2 3 4 5 6 7 8 9 10 11 12 13 14 15 16 17 18 19 20 21 22 23 24 25 26 27 28 29 30 31 32 33 34 35 36 37 38 39 40 41 42 43 44 45 46 47 48 49 50
000
ASUS42 KKEY 282210
RWRKEY

FLORIDA REGIONAL WEATHER ROUNDUP FOR THE FLORIDA KEYS
NATIONAL WEATHER SERVICE KEY WEST FLORIDA
600 PM EDT WED JUN 28 2017

...SOUTH FLORIDA AND THE KEYS...

CITY           SKY/WX    TMP DP  RH WIND       PRES   REMARKS
FORT MYERS     PTSUNNY   87  75  67 NE21G26   29.99R THUNDER HX  96
SW REGIONAL AP CLOUDY    85  73  67 SE20      29.99S THUNDER HX  91
NAPLES         MOSUNNY   90  73  57 W7        29.99F HX  98
MIAMI          CLOUDY    87  75  67 SE8       30.01S HX  96
WEST KENDALL   CLOUDY    82  73  74 SW3       30.01S
HOMESTEAD      CLOUDY    82  76  83 CALM      30.01S
MARATHON       MOSUNNY   88  75  65 SE3       30.01R HX  97
BOCA CHICA NAS MOSUNNY   85  77  77 S7        30.01R HX  95
KEY WEST INTL  SUNNY     86  76  71 S7        30.01R HX  96

...INTERNATIONAL WEATHER...

CITY           SKY/WX    TMP DP  RH WIND       PRES   REMARKS
NASSAU BAHAMAS NOT AVBL
CANCUN MEXICO  MOSUNNY   86  75  70 SE13      29.94F HX  95
COZUMEL MEXICO MOSUNNY   88  75  66 SE13      29.91S HX  97

ADJACENT COASTAL WATERS...

STATION/POSITION TIME  SKY/WX   TEMP    WIND        PRES    WAVE
                                AIR SEA DIR/SP/G            HT/PER
                 (UTC)          (F)     (DEG/KT/KT) (MB)    (FT/S)
PULASKI SHOAL LI 2200            86      40/  3/  4 1016.2R
SAND KEY         2150            84     160/  3/  4 1016.9R
LONG KEY         2000            85 90   70/  1/  5 1016.0
MOLASSES REEF    2100            85 85     CALM     1016.5F
FOWEY ROCKS      2100            84 85   90/  6/  7 1017.1R
Buoy 42097       2130               87                N/A     1/ 4

$$



USA.gov is the U.S. government's official web portal to all federal, state and local government web resources and services.